Regional Weather Roundup
Issued by NWS

Home | Current Version | Previous Version | Graphics & Text | Print | Product List | Glossary On
Versions: 1 2 3 4 5 6 7 8 9 10 11 12 13 14 15 16 17 18 19 20 21 22 23 24 25 26 27 28 29 30 31 32 33 34 35 36 37 38 39 40 41 42 43 44 45 46 47 48 49 50
000
ASUS43 KLMK 160202
RWRKY
KENTUCKY REGIONAL WEATHER ROUNDUP
NATIONAL WEATHER SERVICE LOUISVILLE KY
900 PM EST SUN JAN 15 2017

NOTE "FAIR" INDICATES FEW OR NO CLOUDS BELOW 12,000 FEET
WITH NO SIGNIFICANT WEATHER AND/OR OBSTRUCTIONS TO VISIBILITY.

KYZ001>023-026-027-061>063-070>075-160300-
WESTERN AND SOUTH CENTRAL KENTUCKY

CITY           SKY/WX    TMP DP  RH WIND       PRES   REMARKS
PADUCAH        CLOUDY    41  40  96 E8        30.26F FOG
HENDERSON      CLOUDY    41  37  87 E7        30.29F
OWENSBORO      CLOUDY    41  40  96 E5        30.30F
HOPKINSVILLE   CLOUDY    44  44 100 E5        30.26F FOG
BOWLING GREEN  CLOUDY    45  44  97 NE5       30.29F FOG
GLASGOW        NOT AVBL
$$

KYZ024-025-028>034-038-045-046-053-160300-
NORTH CENTRAL KENTUCKY

CITY           SKY/WX    TMP DP  RH WIND       PRES   REMARKS
LOUISVILLE/SDF CLOUDY    41  38  89 NE3       30.32F
LOUISVILLE/LOU CLOUDY    41  38  89 CALM      30.33S
FORT KNOX      CLOUDY    40  40  99 NE3       30.29S
$$

KYZ035>037-039>044-047>052-055>060-089>105-160300-
NORTHEAST KENTUCKY

CITY           SKY/WX    TMP DP  RH WIND       PRES   REMARKS
LEXINGTON      CLOUDY    41  39  93 E7        30.30F
COVINGTON      LGT RAIN  37  36  96 NE5       30.33S FOG     WCI  33
FRANKFORT      CLOUDY    40  37  89 NE5       30.30F FOG
$$

KYZ054-064>069-076>088-106>120-160300-
SOUTHEAST KENTUCKY

CITY           SKY/WX    TMP DP  RH WIND       PRES   REMARKS
JACKSON        CLOUDY    40  38  93 CALM      30.30S FOG
LONDON         CLOUDY    43  42  97 E5        30.29F FOG
SOMERSET       NOT AVBL
MIDDLESBORO    CLOUDY    51  51 100 CALM      30.29S
MONTICELLO     LGT RAIN  46  46 100 NW6       30.31S VSB 1/2
$$




USA.gov is the U.S. government's official web portal to all federal, state and local government web resources and services.